Location: Unspecified
(41.5000°N, 0.0000°E)
Time: 07:45:55
(UTC+00:00)

Courier 1B Rocket - Pass Details

Date: 27 June 2019
Orbit: 920 x 1202 km, 28.2° (Epoch: 19 July)

Event Time Altitude Azimuth Distance (km) Brightness Sun altitude
Rises 00:34:02 0° 204° (SSW) 4,051 - -24.8°
Reaches altitude 10° 00:39:07 10° 177° (S) 3,045 - -24.6°
Maximum altitude 00:41:47 12° 156° (SSE) 2,856 - -24.5°
Drops below altitude 10° 00:44:24 10° 134° (SE) 2,983 - -24.5°
Exits shadow 00:46:01 - 123° (ESE) 3,204 7.5 -24.4°
Sets 00:49:13 0° 106° (ESE) 3,872 8.1 -24.3°
